GW2492 Weather Reports


Display with metric or nautical units.
time (UTC)temp
F
wind
direction
speed
MPH
gust
MPH
rain 1hr
in
rain 24hr
in
rain mn
in
humidity
%
barometer
mb
20260502223042 70 0 0.0 8.0 0.00 0.00 0.00 47 1021.2
20260502221545 70 106 3.0 8.0 0.00 0.00 0.00 47 1021.4
20260502220045 71 67 5.0 10.0 0.00 0.00 0.00 46 1021.5
20260502214553 71 53 1.0 9.0 0.00 0.00 0.00 47 1021.6
20260502213045 70 38 2.0 8.0 0.00 0.00 0.00 47 1021.7
20260502211547 69 179 2.0 9.0 0.00 0.00 0.00 47 1021.8
20260502210050 70 42 7.0 11.0 0.00 0.00 0.00 47 1022.1
20260502204552 71 69 3.0 11.0 0.00 0.00 0.00 45 1022.2
20260502203049 70 316 4.0 9.0 0.00 0.00 0.00 48 1022.3
20260502201541 68 132 2.0 8.0 0.00 0.00 0.00 47 1022.5
20260502200046 69 38 3.0 9.0 0.00 0.00 0.00 51 1022.8
20260502194545 69 78 2.0 9.0 0.00 0.02 0.00 48 1023.1
20260502193047 68 33 4.0 11.0 0.00 0.02 0.00 50 1023.2
20260502191545 69 347 2.0 7.0 0.00 0.02 0.00 53 1023.3
20260502190048 69 70 4.0 9.0 0.00 0.02 0.00 50 1023.3
20260502184547 68 56 5.0 11.0 0.00 0.22 0.00 49 1023.3
20260502183047 67 27 4.0 8.0 0.00 0.22 0.00 55 1023.5
20260502181546 66 0 6.0 13.0 0.00 0.22 0.00 54 1023.7
20260502163050 65 304 0.0 9.0 0.00 0.28 0.00 62 1024.6
20260502161543 64 340 6.0 10.0 0.00 0.28 0.00 62 1024.5
20260502151554 62 294 4.0 9.0 0.00 0.32 0.00 68 1024.4
20260502123050 48 237 2.0 3.0 0.00 0.39 0.00 93 1023.1
20260502121547 48 234 2.0 5.0 0.00 0.39 0.00 93 1023.1
20260502115032 48 239 3.0 5.0 0.00 0.49 0.00 92 1022.8
20260502113050 48 240 3.0 4.0 0.00 0.49 0.00 92 1022.7
20260502111543 48 240 3.0 5.0 0.00 0.49 0.00 92 1022.5
20260502110044 48 240 3.0 5.0 0.00 0.49 0.00 91 1022.2
20260502104540 48 240 3.0 7.0 0.00 0.56 0.00 91 1022.1
20260502103040 48 240 2.0 5.0 0.00 0.56 0.00 91 1021.9
20260502101557 49 243 3.0 6.0 0.00 0.56 0.00 90 1021.6
20260502100108 49 338 0.0 2.0 0.00 0.56 0.00 90 1021.4
20260502070050 49 299 2.0 4.0 0.00 0.58 0.00 89 1021.2
20260502064546 49 292 2.0 4.0 0.00 0.58 0.00 88 1021.2
20260502063043 49 330 0.0 2.0 0.00 0.58 0.00 87 1021.0
20260502061600 49 0 0.0 0.0 0.00 0.58 0.00 86 1021.0
20260502060050 49 0 0.0 0.0 0.00 0.58 0.00 86 1021.1
20260502054544 49 0 0.0 0.0 0.00 0.58 0.00 85 1021.0
20260502053052 49 0 0.0 0.0 0.00 0.58 0.00 85 1021.0
20260502051548 50 0 0.0 0.0 0.00 0.58 0.00 85 1020.9
20260502050047 50 0 0.0 2.0 0.00 0.58 0.00 84 1020.9
20260502044545 50 86 1.0 3.0 0.00 0.58 0.58 81 1021.1
20260502043052 51 0 0.0 1.0 0.00 0.58 0.58 79 1020.9
20260502041552 51 0 0.0 4.0 0.00 0.58 0.58 79 1020.7
20260502040054 51 73 3.0 6.0 0.00 0.58 0.58 80 1020.4
20260502034546 52 58 3.0 8.0 0.00 0.58 0.58 81 1020.1
20260502033044 52 59 4.0 7.0 0.00 0.58 0.58 81 1020.0
20260502030050 53 63 2.0 6.0 0.00 0.58 0.58 80 1019.9
20260502024558 53 78 3.0 6.0 0.00 0.58 0.58 77 1019.5
20260502023046 54 51 2.0 5.0 0.00 0.58 0.58 75 1019.6
20260502021555 54 38 3.0 9.0 0.00 0.58 0.58 74 1019.5
20260502020043 55 58 4.0 9.0 0.00 0.58 0.58 73 1019.2
20260502014546 55 53 4.0 10.0 0.00 0.58 0.58 71 1018.8
20260502011543 55 26 7.0 13.0 0.00 0.58 0.58 70 1018.4
20260502010101 56 62 7.0 12.0 0.00 0.58 0.58 71 1017.9
20260502004545 56 61 8.0 15.0 0.00 0.58 0.58 69 1017.7
20260502003046 57 42 8.0 18.0 0.00 0.58 0.58 68 1017.6
20260502001547 57 50 9.0 18.0 0.00 0.58 0.58 69 1017.4
20260502000044 56 40 12.0 18.0 0.00 0.58 0.58 71 1017.1
20260501234550 56 49 10.0 16.0 0.00 0.58 0.58 77 1017.1
20260501233045 56 68 9.0 15.0 0.00 0.58 0.58 80 1016.9
20260501231543 56 78 9.0 16.0 0.00 0.58 0.58 80 1016.8
20260501230056 56 56 8.0 17.0 0.00 0.58 0.58 81 1016.6
20260501224543 56 55 7.0 18.0 0.00 0.58 0.58 82 1016.3